User: anonymous   Login
Location: ECC Obs
(38.4314°N, 90.9815°W)
Time: 13:29:06
(UTC-05:00)
Language:

deb Explorer IX - Orbit

View from above orbital plane
View from above orbital plane
View from above satellite
View from above satellite

Ground track
Ground track

The orbit data is extracted from the following two-line orbital elements,

1    85U 61004C   20087.25770643 +.00000845 +00000-0 +20429-3 0  9992
2    85 038.7697 080.2404 0384333 313.0364 043.8784 14.20399506919403
Epoch (UTC): 27 March 2020 06:11:05
Eccentricity: 0.0384333
inclination: 38.7697°
perigee height: 547 km
apogee height: 1101 km
right ascension of ascending node: 80.2404°
argument of perigee: 313.0364°
revolutions per day: 14.20399506
mean anomaly at epoch: 43.8784°
orbit number at epoch: 91940

The dashed part of the orbit path shows where the satellite is in the earth's shadow,  

DLR